FW6569 Weather Reports


Display with metric or nautical units.
time (UTC)temp
F
wind
direction
speed
MPH
gust
MPH
rain 1hr
in
rain 24hr
in
rain mn
in
humidity
%
barometer
mb
20260506092528 43 2 4.0 6.0 0.00 1.84 0.36 94 1010.1
20260506091528 43 356 4.0 6.0 0.01 1.88 0.36 94 1010.6
20260506090528 44 322 1.0 6.0 0.01 1.91 0.36 93 1010.8
20260506085528 43 349 3.0 6.0 0.01 1.95 0.36 92 1010.3
20260506084528 44 350 4.0 8.0 0.01 1.96 0.36 92 1009.7
20260506083528 44 346 4.0 7.0 0.01 1.98 0.36 91 1009.8
20260506082608 44 7 6.0 10.0 0.01 2.01 0.36 90 1009.7
20260506081528 44 0 7.0 10.0 0.00 2.02 0.35 90 1009.7
20260506080528 44 5 6.0 9.0 0.00 2.02 0.35 93 1009.9
20260506073528 44 338 2.0 4.0 0.04 2.02 0.35 92 1009.4
20260506072528 44 1 6.0 10.0 0.05 2.02 0.35 90 1009.3
20260506071528 44 352 8.0 13.0 0.08 2.02 0.35 93 1009.2
20260506070528 45 14 10.0 17.0 0.08 2.02 0.35 95 1009.0
20260506061548 47 354 7.0 13.0 0.02 1.94 0.27 96 1009.4
20260506060528 47 354 6.0 9.0 0.04 1.94 0.27 97 1009.3
20260506050528 48 356 7.0 10.0 0.17 1.90 0.23 97 1008.6
20260506044528 48 3 6.0 10.0 0.23 1.88 0.21 98 1008.3
20260506043528 49 352 6.0 10.0 0.23 1.86 0.19 98 1008.3
20260506042548 49 19 5.0 9.0 0.23 1.83 0.16 98 1008.8
20260506041528 49 1 4.0 7.0 0.21 1.79 0.12 98 1008.7
20260506040529 49 9 4.0 6.0 0.21 1.73 0.06 98 1008.5
20260506035528 49 5 5.0 11.0 0.19 1.67 1.67 98 1008.0
20260506034528 49 1 6.0 10.0 0.19 1.65 1.65 98 1007.9
20260506033548 49 8 7.0 9.0 0.17 1.63 1.63 98 1007.9
20260506032548 49 357 5.0 9.0 0.15 1.60 1.60 98 1008.2
20260506031528 50 357 5.0 10.0 0.14 1.58 1.58 97 1008.2
20260506030529 50 353 5.0 9.0 0.10 1.52 1.52 97 1008.8
20260506025528 50 355 6.0 9.0 0.07 1.48 1.48 97 1008.0
20260506024549 50 2 5.0 9.0 0.06 1.46 1.46 97 1007.9
20260506023529 50 4 5.0 9.0 0.08 1.46 1.46 97 1007.7
20260506022528 50 6 8.0 11.0 0.11 1.45 1.45 97 1007.7
20260506021550 50 12 6.0 9.0 0.12 1.44 1.44 97 1007.9
20260506020518 50 359 6.0 10.0 0.16 1.42 1.42 97 1008.1
20260506015519 50 7 7.0 11.0 0.20 1.41 1.41 97 1007.9
20260506014519 50 6 5.0 8.0 0.23 1.40 1.40 97 1008.2
20260506013518 50 7 7.0 10.0 0.22 1.38 1.38 97 1008.0
20260506012519 50 320 1.0 5.0 0.20 1.34 1.34 97 1008.6
20260506011518 50 359 3.0 7.0 0.22 1.32 1.32 97 1008.4
20260506010519 50 9 5.0 9.0 0.20 1.26 1.26 97 1008.3
20260506005519 51 347 3.0 7.0 0.18 1.21 1.21 97 1008.2
20260506004519 51 5 6.0 12.0 0.23 1.17 1.17 97 1008.1
20260506003539 51 357 6.0 11.0 0.26 1.16 1.16 96 1008.0
20260506002519 51 3 6.0 10.0 0.25 1.14 1.14 95 1008.1
20260506001519 52 12 7.0 14.0 0.23 1.10 1.10 94 1008.4
20260506000519 55 344 4.0 11.0 0.24 1.06 1.06 95 1008.3
20260505235519 58 332 4.0 11.0 0.26 1.03 1.03 97 1008.1
20260505234519 59 242 5.0 9.0 0.18 0.94 0.94 97 1007.6
20260505233519 59 206 7.0 9.0 0.14 0.90 0.90 96 1007.2
20260505232519 59 196 7.0 11.0 0.14 0.89 0.89 96 1007.2
20260505231519 59 214 9.0 13.0 0.13 0.87 0.87 96 1007.7
20260505230519 59 196 9.0 14.0 0.10 0.82 0.82 95 1007.8
20260505225519 59 199 9.0 13.0 0.07 0.77 0.77 94 1007.8
20260505224559 59 200 10.0 13.0 0.09 0.76 0.76 94 1007.8
20260505223539 59 197 11.0 18.0 0.12 0.76 0.76 96 1008.0
20260505222539 60 198 8.0 11.0 0.15 0.75 0.75 97 1008.0
20260505221519 60 212 5.0 8.0 0.20 0.74 0.74 97 1008.1
20260505220539 60 194 6.0 10.0 0.21 0.72 0.72 97 1008.1
20260505215519 60 201 6.0 9.0 0.22 0.70 0.70 97 1008.1
20260505214540 60 204 5.0 7.0 0.19 0.67 0.67 97 1008.1
20260505213519 60 203 6.0 9.0 0.16 0.64 0.64 96 1008.2
20260505212519 60 205 6.0 10.0 0.12 0.60 0.60 96 1008.4
20260505211519 60 214 6.0 8.0 0.06 0.54 0.54 95 1008.5
20260505210519 60 212 6.0 9.0 0.03 0.51 0.51 95 1008.5
20260505205519 60 212 7.0 10.0 0.00 0.48 0.48 94 1008.5
20260505204519 61 194 8.0 14.0 0.00 0.48 0.48 94 1008.5
20260505203519 61 199 8.0 11.0 0.00 0.48 0.48 94 1008.6
20260505202539 61 195 7.0 10.0 0.01 0.48 0.48 94 1008.6
20260505201519 61 202 7.0 9.0 0.02 0.48 0.48 94 1008.6
20260505200519 61 196 6.0 8.0 0.03 0.48 0.48 94 1008.6
20260505195519 61 194 5.0 7.0 0.06 0.48 0.48 95 1008.7
20260505194519 60 212 6.0 8.0 0.07 0.48 0.48 94 1008.9
20260505193520 60 195 5.0 7.0 0.08 0.48 0.48 94 1008.9
20260505192520 60 182 5.0 7.0 0.09 0.47 0.47 94 1009.1
20260505191519 60 208 5.0 7.0 0.10 0.46 0.46 94 1009.3
20260505190520 60 201 4.0 6.0 0.09 0.45 0.45 94 1009.5
20260505185520 60 185 5.0 6.0 0.06 0.42 0.42 93 1009.6
20260505184540 60 209 3.0 4.0 0.11 0.41 0.41 93 1009.7
20260505183520 60 203 4.0 5.0 0.11 0.40 0.40 92 1009.5
20260505182519 60 201 6.0 8.0 0.09 0.38 0.38 91 1009.6
20260505181519 60 208 9.0 11.0 0.07 0.36 0.36 90 1009.8
20260505180520 60 213 9.0 14.0 0.07 0.36 0.36 90 1009.8
20260505175539 60 219 8.0 12.0 0.07 0.36 0.36 87 1010.0
20260505174540 62 234 9.0 14.0 0.01 0.30 0.30 81 1010.1
20260505173520 63 199 8.0 10.0 0.00 0.29 0.29 80 1009.9
20260505172520 62 201 7.0 11.0 0.00 0.29 0.29 79 1009.8
20260505171520 63 204 7.0 9.0 0.00 0.29 0.29 79 1009.8
20260505170530 63 205 11.0 14.0 0.00 0.29 0.29 78 1010.0
20260505165520 63 197 7.0 10.0 0.00 0.29 0.29 79 1009.9
20260505164520 63 193 8.0 10.0 0.00 0.29 0.29 79 1009.8
20260505163520 63 206 9.0 12.0 0.00 0.29 0.29 78 1009.9
20260505162600 63 187 7.0 11.0 0.00 0.29 0.29 79 1009.8
20260505161520 63 202 6.0 8.0 0.00 0.29 0.29 80 1009.9
20260505160520 63 191 9.0 13.0 0.00 0.29 0.29 80 1009.9
20260505152550 62 203 8.0 11.0 0.00 0.29 0.29 83 1010.0
20260505151520 62 191 8.0 11.0 0.00 0.29 0.29 82 1009.9
20260505150520 62 190 8.0 11.0 0.00 0.29 0.29 82 1009.8
20260505140520 62 199 6.0 9.0 0.00 0.29 0.29 85 1009.5
20260505124520 57 204 5.0 7.0 0.00 0.28 0.28 93 1009.2
20260505123520 57 208 2.0 6.0 0.00 0.28 0.28 94 1009.1
20260505122520 57 176 1.0 4.0 0.00 0.28 0.28 94 1008.6
20260505121520 56 159 5.0 7.0 0.00 0.28 0.28 95 1008.5
20260505120521 56 151 4.0 6.0 0.00 0.28 0.28 96 1008.9
20260505115520 56 194 2.0 4.0 0.00 0.28 0.28 96 1009.0
20260505114520 56 137 5.0 7.0 0.00 0.28 0.28 96 1008.8
20260505113520 56 0.0 0.0 0.00 0.28 0.28 96 1009.7
20260505112521 56 207 3.0 5.0 0.01 0.28 0.28 96 1009.8
20260505111601 56 221 2.0 5.0 0.02 0.28 0.28 96 1009.6
20260505110521 56 210 3.0 6.0 0.02 0.28 0.28 96 1009.3
20260505100520 56 153 4.0 5.0 0.14 0.26 0.26 96 1009.3
20260505095521 56 134 3.0 4.0 0.17 0.25 0.25 96 1009.7
20260505094520 56 252 0.0 2.0 0.17 0.24 0.24 95 1010.0
20260505093521 57 150 2.0 3.0 0.17 0.22 0.22 95 1010.0